SB KEPS @ AMSAT $ORB12264.N 2Line Orbital Elements 12264.AMSAT
HR AMSAT ORBITAL ELEMENTS FOR AMATEUR SATELLITES IN NASA FORMAT FROM WA5QGD FORT WORTH,TX September 20, 2012 BID: ORB12264.N
DECODE 2-LINE ELSETS WITH THE FOLLOWING KEY: 1 AAAAAU 00 0 0 BBBBB.BBBBBBBB .CCCCCCCC 00000-0 00000-0 0 DDDZ 2 AAAAA EEE.EEEE FFF.FFFF GGGGGGG HHH.HHHH III.IIII JJ.JJJJJJJJKKKKKZ KEY: A-CATALOGNUM B-EPOCHTIME C-DECAY D-ELSETNUM E-INCLINATION F-RAAN G-ECCENTRICITY H-ARGPERIGEE I-MNANOM J-MNMOTION K-ORBITNUM Z-CHECKSUM
TO ALL RADIO AMATEURS BT
AO-07 1 07530U 74089B 12264.59272424 -.00000027 00000-0 10000-3 0 4857 2 07530 101.4097 258.1445 0012099 094.8200 265.4259 12.53591471732005 FO-29 1 24278U 96046B 12264.58114096 .00000116 00000-0 15128-3 0 9366 2 24278 098.5882 352.7670 0351012 142.3073 220.3302 13.52989333794858 SO-33 1 25509U 98061B 12263.87287313 .00000106 00000-0 81545-5 0 03256 2 25509 031.4347 157.8292 0352674 311.8232 045.2742 14.28811648726200 RS-22 1 27939U 03042A 12264.54099526 .00000383 00000-0 81336-4 0 7407 2 27939 097.8046 100.4444 0013014 327.9227 032.1183 14.64131813479835 VO-52 1 28650U 05017B 12263.64630463 .00001026 00000-0 13108-3 0 02134 2 28650 097.5902 289.9610 0027609 090.2054 270.2328 14.83178198398974 HO-68 1 36122U 09072B 12264.75666891 -.00000044 00000-0 00000 0 0 8464 2 36122 100.3513 322.1326 0007098 250.3514 109.6843 13.16297997132968 UO-11 1 14781U 84021B 12263.74041042 .00000528 00000-0 75711-4 0 09868 2 14781 097.9450 322.3862 0010185 085.7684 274.4692 14.80560597533927 AO-16 1 20439U 90005D 12264.80803619 .00000081 00000-0 46168-4 0 5626 2 20439 098.4372 205.5376 0009956 235.9119 124.1121 14.32084400183684 LO-19 1 20442U 90005G 12264.60701360 .00000023 00000-0 24225-4 0 4937 2 20442 098.4049 208.0188 0011159 225.6503 134.3767 14.32300374183847 AO-27 1 22825U 93061C 12264.79002903 .00000140 00000-0 71837-4 0 2014 2 22825 098.5822 206.1492 0008656 005.1445 354.9831 14.29486675990130 IO-26 1 22826U 93061D 12264.77253663 .00000058 00000-0 39616-4 0 9524 2 22826 098.5767 206.4787 0009170 358.9383 001.1778 14.29762389990265 GO-32 1 25397U 98043D 12263.67001765 .00000124 00000-0 72872-4 0 08802 2 25397 098.3732 237.7814 0001924 040.4249 319.7079 14.23293203737463 NO-44 1 26931U 01043C 12263.54333749 -.00000319 00000-0 -91604-4 0 01420 2 26931 067.0496 237.1461 0006418 254.6123 105.4269 14.29828629572733 SO-50 1 27607U 02058C 12264.72993511 .00000640 00000-0 11751-3 0 8693 2 27607 064.5601 004.2342 0076880 229.4768 129.9620 14.72515572524030 CO-55 1 27844U 03031E 12263.55300088 .00000172 00000-0 99442-4 0 04677 2 27844 098.7064 270.5702 0009313 316.5936 043.4506 14.21072719478299 CO-57 1 27848U 03031J 12263.57333859 .00000138 00000-0 83962-4 0 4161 2 27848 098.7124 269.9649 0009272 321.7165 038.3347 14.20818012478231 AO-51 1 28375U 04025K 12263.86344721 .00000172 00000-0 63782-4 0 03708 2 28375 098.1587 224.7930 0084113 113.6187 247.3853 14.40987442432404 CP3 1 31129U 07012N 12264.58727455 .00000615 00000-0 14908-3 0 2680 2 31129 097.8835 266.7678 0100658 185.5638 174.4446 14.53208556287833 CO-65 1 32785U 08021C 12263.83483213 .00000562 00000-0 75096-4 0 4193 2 32785 097.7892 322.6070 0015916 111.1234 249.1660 14.83189325237794 PRISM 1 33493U 09002B 12264.72952567 .00001767 00000-0 21688-3 0 889 2 33493 098.1840 047.6705 0018632 350.8744 009.2140 14.84331568197921 SOHLA-1 1 33496U 09002E 12263.92287743 .00000113 00000-0 27069-4 0 08646 2 33496 098.1127 015.0758 0007722 098.4721 261.7360 14.70042847196165 SO-67 1 35870U 09049F 12264.77292378 .00002971 00000-0 12354-3 0 3446 2 35870 097.2245 297.1592 0002249 146.2661 324.6715 15.24532243167173 TISAT-1 1 36799U 10035E 12264.73630149 .00001173 00000-0 15372-3 0 3639 2 36799 098.0568 341.7541 0013890 219.3068 140.7156 14.82248082118640 STUDSAT 1 36801U 10035G 12263.82809909 .00003353 00000-0 39795-3 0 04823 2 36801 098.0630 342.0089 0011655 209.6174 150.4376 14.85131728118566 FO-69 1 37227U 0 12264.18928652 .00000351 00000-0 57406-4 0 02872 2 37227 071.9681 102.3098 0016478 148.6454 211.5694 14.77169783050125 FO-70 1 37380U 0 12264.21088706 .00000292 00000-0 49307-4 0 02924 2 37380 071.9712 102.9407 0016856 145.1543 215.0726 14.76919445050011 ALMASAT-1 1 38078U 12006B 12264.70048037 .00022181 00000-0 61808-3 0 5816 2 38078 069.4762 100.4424 0743532 129.0715 237.9195 14.12368769 31025 XATCOBEO 1 38082U 12006F 12264.66083395 .00058001 00000-0 14097-2 0 5639 2 38082 069.4783 095.6446 0702473 126.4542 240.3952 14.23797052 31145 NOAA-10 1 16969U 86073A 12264.69176688 -.00000008 00000-0 14558-4 0 695 2 16969 098.5772 292.0188 0011719 319.2145 040.8157 14.27577169353493 NOAA-11 1 19531U 88089A 12264.32339215 -.00000227 00000-0 -94735-4 0 610 2 19531 098.7296 347.4658 0010820 317.4446 042.5878 14.14979982237964 NOAA-12 1 21263U 91032A 12264.64622166 .00000048 00000-0 39298-4 0 5473 2 21263 098.7245 285.8447 0013025 286.0182 073.9558 14.25518415110158 MET-3/5 1 21655U 91056A 12264.48875413 -.00000289 00000-0 -78336-3 0 5082 2 21655 082.5524 084.8580 0014453 086.0039 274.2736 13.17043225 14434 MET-2/21 1 22782U 93055A 12264.75193025 .00000048 00000-0 30074-4 0 5323 2 22782 082.5486 316.6943 0021016 243.4588 116.4423 13.83688631962388 OKEAN-4 1 23317U 94066A 12263.97700204 .00000531 00000-0 60654-4 0 00056 2 23317 082.5401 302.5809 0023016 043.0031 317.2979 14.83948400968864 NOAA-14 1 23455U 94089A 12264.65287679 -.00000011 00000-0 17362-4 0 272 2 23455 098.8240 346.9320 0010322 046.7470 313.4566 14.13870487914280 NOAA-15 1 25338U 98030A 12264.19158237 .00000149 00000-0 82154-4 0 4074 2 25338 098.7005 250.2503 0010456 187.3498 172.7516 14.25119434746386 RESURS 1 25394U 98043A 12263.95883827 .00000013 00000-0 23413-4 0 02175 2 25394 098.3292 247.2500 0001506 006.6629 353.4569 14.24296357737891 FENGYUN1 1 25730U 99025A 12263.89829852 .00000122 00000-0 94286-4 0 07139 2 25730 098.8525 221.2707 0020350 087.7185 272.6296 14.09745082687952 OKEAN-0 1 25860U 99039A 12263.94184177 .00000345 00000-0 59560-4 0 07625 2 25860 097.9474 224.7093 0000888 042.5837 317.5438 14.74300927708534 NOAA-16 1 26536U 00055A 12264.22252652 -.00000037 00000-0 48415-5 0 8967 2 26536 099.0843 307.7708 0010659 172.3830 187.7496 14.12781288618452 NOAA-17 1 27453U 02032A 12264.27069534 -.00000032 00000-0 36692-5 0 8412 2 27453 098.3302 286.4825 0010853 235.2997 124.7158 14.24482219532293 NOAA-18 1 28654U 05018A 12264.32401044 -.00000047 00000-0 -59576-6 0 3234 2 28654 099.0574 223.2551 0013443 246.7041 113.2736 14.11699173377989 NOAA-19 1 33591U 09005A 12264.35334929 -.00000120 00000-0 -42275-4 0 5128 2 33591 098.8703 202.9893 0014877 109.9323 250.3459 14.11385264186430 HUBBLE 1 20580U 90037B 12263.23787721 .00001168 00000-0 72793-4 0 736 2 20580 028.4694 247.9511 0002992 341.4422 018.6077 15.02787815 28891 ISS 1 25544U 98067A 12264.85068697 .00012477 00000-0 22512-3 0 3376 2 25544 051.6501 005.8241 0018299 083.4530 012.3090 15.49986975792884 CO-58 1 28895U 05043F 12263.61520876 .00000482 00000-0 10771-3 0 02810 2 28895 097.9006 125.6737 0016729 211.7931 148.2277 14.60745436367440 FALCON 1 30776U 07006E 12264.80038212 .00003022 00000-0 19397-3 0 4416 2 30776 035.4321 052.5540 0001251 094.2947 265.7915 15.08211491304697 MAST 1 31126U 07012K 12264.58877668 .00000196 00000-0 53828-4 0 5625 2 31126 097.8758 270.1207 0093599 172.6549 187.6046 14.54253593288132 CAPE1 1 31130U 07012P 12264.49701181 .00000275 00000-0 72560-4 0 5729 2 31130 097.8856 266.3713 0101125 186.8348 173.1481 14.53065437287616 COMPASS 1 32787U 08021E 12263.65806792 .00001166 00000-0 14490-3 0 04153 2 32787 097.7921 322.8746 0016148 109.2989 250.9980 14.84335641237828 AAUSAT2 1 32788U 08021F 12263.67376070 .00001686 00000-0 20502-3 0 04076 2 32788 097.7948 323.3276 0015819 109.4936 250.7983 14.84687954237851 DO-64 1 32789U 08021G 12264.76367937 .00002720 00000-0 31358-3 0 4228 2 32789 097.8042 326.7945 0015607 103.2497 257.0453 14.86419870238076 CO-66 1 32791U 08021J 12263.82155529 .00001069 00000-0 13540-3 0 04058 2 32791 097.7887 322.6950 0017077 110.5884 249.7091 14.83694205237776 RS-30 1 32953U 08025A 12264.90973255 .00000010 00000-0 00000 0 0 1589 2 32953 082.5001 235.6047 0020276 097.0623 263.2760 12.43027804196453 PHARMSAT 1 35002U 09028B 12226.86484473 .07728342 73476-5 57159-3 0 789 2 35002 040.4341 050.6671 0012079 300.9773 059.0492 16.39309245183554 METEOR-M 1 35865U 09049A 12264.78187189 -.00000019 00000-0 11141-4 0 7950 2 35865 098.6444 317.2645 0002957 121.0654 239.0812 14.21869220156185 RS-38 1 35869U 09049E 12264.71829117 .00000030 00000-0 33282-4 0 7829 2 35869 098.6396 317.1813 0005069 126.5897 233.5747 14.22087424156193 JUGNU 1 37839U 11058B 12263.08463629 .00000620 00000-0 19019-3 0 02306 2 37839 019.9591 149.3875 0019439 176.4778 183.5649 14.12082165048535 SRMSAT 1 37841U 11058D 12263.90389899 .00000264 00000-0 00000-0 0 02341 2 37841 019.9697 151.1619 0012085 151.9329 208.1728 14.10162034048581 RAX-2 1 37853U 11061D 12263.81064625 .00004066 00000-0 32468-3 0 02974 2 37853 101.7082 347.0971 0244275 081.0342 281.8420 14.80791168048406 AUBIESAT 1 37854U 11061E 12263.80656351 .00004177 00000-0 32753-3 0 02933 2 37854 101.7129 347.4709 0245291 080.2923 282.5886 14.81244898048393 HRBE 1 37855U 11061F 12264.84388356 .00004292 00000-0 33751-3 0 2876 2 37855 101.7109 348.9029 0245580 077.4359 285.4194 14.81070037 48548 RS-39 1 38051U 11062C 12264.75216435 .00007605 00000-0 30590-3 0 7193 2 38051 051.6350 063.9490 0012697 021.9004 172.4553 15.25802038 36551 E-STAR 1 38079U 12006C 12264.69805543 .00047145 00000-0 11573-2 0 5188 2 38079 069.4784 096.4579 0714419 126.8899 239.9906 14.21079701 31123 GOLIAT 1 38085U 12006J 12264.68893897 .00044637 00000-0 10965-2 0 4864 2 38085 069.4848 097.0943 0719741 127.4545 239.4886 14.19940247 31100 HORYU-2 1 38340U 12025D 12264.32131936 .00000883 00000-0 15494-3 0 1550 2 38340 098.1820 204.3011 0013572 033.3053 326.9021 14.70175830 18451 RS-40 1 38736U 12041D 12264.71441186 .00000010 00000-0 00000 0 0 577 2 38736 082.4812 323.1480 0018548 192.1221 167.9424 12.42646496 6776 PROITERES 1 38756U 12047B 12264.76510160 .00000302 00000-0 54180-4 0 475 2 38756 098.2853 330.4851 0011542 242.2842 117.7196 14.73874215 1709 AENEAS 1 38760U 0 12263.51384741 .00001219 00000-0 12621-3 0 00125 2 38760 064.6718 023.4550 0219105 287.6245 175.2963 14.79106966000810 CSSWE 1 38761U 0 12261.82383910 .00001382 00000-0 14187-3 0 00103 2 38761 064.6714 028.6390 0218654 288.2530 172.9518 14.78858418000565 CP5 1 38763U 00000 12258.03722222 0.00000000 00000-0 00000-0 0 0008 2 38763 66.2600 30.4300 0202000 308.7900 155.8234 14.79897280000003 /EX